Tracking 19245 objects as of 18-Aug-2018
HD Live streaming from Space Station
objects crossing your sky now

RADUGA 2

Track RADUGA 2 now!
RADUGA 2 is classified as:


NORAD ID: 9416
Int'l Code: 1976-092A
Perigee: 35,666.7 km
Apogee: 35,906.1 km
Inclination: 10.3 °
Period: 1,435.7 minutes
Semi major axis: 42157 km
RCS: 0.1428 m2 (medium)
Launch date: September 11, 1976
Source: Commonwealth of Independent States (former USSR) (CIS)
Launch site: TYURATAM MISSILE AND SPACE COMPLEX (TTMTR)
aabbcc
Your satellite tracking list
Your tracking list is empty




NASA's NSSDC Master Catalog

Two Line Element Set (TLE):
1 09416U 76092A   18228.81447303 -.00000146  00000-0  00000+0 0  9996
2 09416  10.3408 308.8390 0028396 313.6087  74.3031  1.00298025100641
Source of the keplerian elements: AFSPC